When you browse on this site, cookies collect data to enhance your experience and personalize the content and advertising you see.
Visit our Privacy Policy to learn more. By continuing to use the site, you agree to this use of cookies and data.
  • In Latvia
  • List of Countries
  • For 7 days
  • Water Temperature
  • Satellite Maps
  • Weather Map
  • Weather Widgets
  • user-avatar
    Login

    Hourly Weather Mikorzyce

    Today, 21 April, Sunday

    Time Temperature Precipitation Wind Pressure Humidity
    00:00 +8°C° 0 mm 2 mps 757 mmHg 64%
    01:00 +8°C° 0 mm 2 mps 756 mmHg 68%
    02:00 +8°C° 0 mm 1 mps 756 mmHg 69%
    03:00 +8°C° 0 mm 1 mps 756 mmHg 71%
    04:00 +7°C° 0 mm 1 mps 756 mmHg 72%
    05:00 +8°C° 0 mm 1 mps 756 mmHg 69%
    06:00 +9°C° 0 mm 1 mps 756 mmHg 65%
    07:00 +10°C° 0 mm 1 mps 756 mmHg 62%
    08:00 +12°C° 0 mm 1 mps 755 mmHg 56%
    09:00 +14°C° 0 mm 1 mps 755 mmHg 51%
    10:00 +16°C° 0 mm 2 mps 755 mmHg 46%
    11:00 +17°C° 0 mm 2 mps 755 mmHg 43%
    12:00 +18°C° 0 mm 1 mps 754 mmHg 40%
    13:00 +19°C° 0 mm 1 mps 754 mmHg 37%
    14:00 +20°C° 0 mm 1 mps 753 mmHg 37%
    15:00 +20°C° 0 mm 1 mps 753 mmHg 37%
    16:00 +20°C° 0 mm 1 mps 752 mmHg 36%
    17:00 +18°C° 0 mm 1 mps 752 mmHg 41%
    18:00 +15°C° 0 mm 1 mps 751 mmHg 47%
    19:00 +13°C° 0 mm 1 mps 751 mmHg 52%
    20:00 +13°C° 0 mm 1 mps 751 mmHg 52%
    21:00 +12°C° 0 mm 1 mps 751 mmHg 53%
    22:00 +11°C° 0 mm 1 mps 751 mmHg 53%
    23:00 +9°C° 0 mm 2 mps 751 mmHg 59%

    Tomorrow, 22 April, Monday

    Time Temperature Precipitation Wind Pressure Humidity
    00:00 +8°C° 0 mm 2 mps 751 mmHg 64%
    01:00 +7°C° 0 mm 2 mps 751 mmHg 70%
    02:00 +7°C° 0 mm 2 mps 751 mmHg 75%
    03:00 +6°C° 0 mm 2 mps 751 mmHg 79%
    04:00 +6°C° 0 mm 2 mps 751 mmHg 84%
    05:00 +5°C° 0 mm 3 mps 751 mmHg 78%
    06:00 +7°C° 0 mm 3 mps 751 mmHg 73%
    07:00 +8°C° 0 mm 3 mps 751 mmHg 67%
    08:00 +10°C° 0 mm 4 mps 751 mmHg 62%
    09:00 +12°C° 0 mm 4 mps 751 mmHg 57%
    10:00 +13°C° 0 mm 4 mps 751 mmHg 52%
    11:00 +14°C° 0 mm 5 mps 750 mmHg 52%
    12:00 +14°C° 0 mm 5 mps 750 mmHg 52%
    13:00 +15°C° 0 mm 6 mps 750 mmHg 52%
    14:00 +15°C° 0 mm 6 mps 749 mmHg 49%
    15:00 +15°C° 0 mm 6 mps 749 mmHg 47%
    16:00 +16°C° 0 mm 6 mps 749 mmHg 44%
    17:00 +15°C° 0 mm 6 mps 749 mmHg 50%
    18:00 +13°C° 0 mm 5 mps 749 mmHg 57%
    19:00 +12°C° 0 mm 5 mps 749 mmHg 63%
    20:00 +12°C° 0 mm 5 mps 749 mmHg 65%
    21:00 +10°C° 0 mm 6 mps 749 mmHg 68%
    22:00 +9°C° 0 mm 6 mps 749 mmHg 70%
    23:00 +8°C° 0 mm 6 mps 748 mmHg 70%

    Day after tomorrow, 23 April, Tuesday

    Time Temperature Precipitation Wind Pressure Humidity
    00:00 +8°C° 0 mm 6 mps 748 mmHg 70%
    01:00 +7°C° 0 mm 5 mps 748 mmHg 69%
    02:00 +6°C° 0 mm 5 mps 747 mmHg 71%
    03:00 +6°C° 0 mm 5 mps 747 mmHg 72%
    04:00 +5°C° 0 mm 5 mps 747 mmHg 74%
    05:00 +6°C° 0 mm 5 mps 746 mmHg 72%
    06:00 +7°C° 0 mm 6 mps 746 mmHg 71%
    07:00 +8°C° 0 mm 7 mps 746 mmHg 70%
    08:00 +10°C° 0 mm 7 mps 746 mmHg 67%
    09:00 +11°C° 0 mm 7 mps 746 mmHg 65%
    10:00 +13°C° 0 mm 8 mps 745 mmHg 62%
    11:00 +14°C° 0.2 mm 7 mps 745 mmHg 66%
    12:00 +12°C° 0.2 mm 7 mps 745 mmHg 70%
    13:00 +12°C° 0.2 mm 7 mps 744 mmHg 73%
    14:00 +13°C° 1.7 mm 6 mps 744 mmHg 77%
    15:00 +13°C° 1.7 mm 5 mps 744 mmHg 81%
    16:00 +13°C° 1.7 mm 4 mps 743 mmHg 85%
    17:00 +12°C° 0.1 mm 4 mps 743 mmHg 84%
    18:00 +12°C° 0.1 mm 5 mps 743 mmHg 82%
    19:00 +12°C° 0.1 mm 5 mps 743 mmHg 80%
    20:00 +10°C° 0 mm 6 mps 743 mmHg 80%
    21:00 +10°C° 0 mm 6 mps 743 mmHg 80%
    22:00 +10°C° 0 mm 7 mps 743 mmHg 80%
    23:00 +10°C° 0 mm 7 mps 743 mmHg 81%

    24 April, Wednesday

    Time Temperature Precipitation Wind Pressure Humidity
    00:00 +10°C° 0 mm 7 mps 742 mmHg 82%
    01:00 +9°C° 0 mm 7 mps 742 mmHg 82%
    02:00 +9°C° 0 mm 6 mps 742 mmHg 82%
    03:00 +10°C° 0 mm 6 mps 742 mmHg 82%
    04:00 +10°C° 0 mm 6 mps 742 mmHg 81%
    05:00 +10°C° 0 mm 6 mps 742 mmHg 80%
    06:00 +11°C° 0 mm 6 mps 742 mmHg 79%
    07:00 +13°C° 0 mm 6 mps 742 mmHg 77%
    08:00 +14°C° 0 mm 6 mps 743 mmHg 74%
    09:00 +15°C° 0 mm 6 mps 743 mmHg 71%
    10:00 +16°C° 0 mm 7 mps 743 mmHg 68%
    11:00 +17°C° 0 mm 7 mps 743 mmHg 66%
    12:00 +18°C° 0 mm 7 mps 744 mmHg 64%
    13:00 +18°C° 0 mm 8 mps 744 mmHg 62%
    14:00 +18°C° 0 mm 7 mps 744 mmHg 63%
    15:00 +20°C° 0 mm 7 mps 744 mmHg 63%
    16:00 +20°C° 0 mm 6 mps 744 mmHg 64%
    17:00 +19°C° 0 mm 6 mps 744 mmHg 68%
    18:00 +17°C° 0 mm 5 mps 744 mmHg 73%
    19:00 +16°C° 0 mm 5 mps 744 mmHg 77%
    20:00 +16°C° 0 mm 5 mps 744 mmHg 78%
    21:00 +15°C° 0 mm 5 mps 744 mmHg 78%
    22:00 +15°C° 0 mm 6 mps 744 mmHg 79%
    23:00 +14°C° 0 mm 5 mps 744 mmHg 81%

    25 April, Thursday

    Time Temperature Precipitation Wind Pressure Humidity
    00:00 +14°C° 0 mm 4 mps 744 mmHg 84%
    01:00 +13°C° 0 mm 4 mps 744 mmHg 86%
    02:00 +13°C° 0 mm 4 mps 744 mmHg 88%
    03:00 +12°C° 0 mm 3 mps 744 mmHg 91%
    04:00 +11°C° 0 mm 3 mps 744 mmHg 93%
    05:00 +12°C° 0.8 mm 3 mps 744 mmHg 91%
    06:00 +13°C° 0.8 mm 4 mps 745 mmHg 90%
    07:00 +14°C° 0.8 mm 4 mps 745 mmHg 88%
    08:00 +17°C° 0.2 mm 4 mps 745 mmHg 79%
    09:00 +18°C° 0.2 mm 4 mps 746 mmHg 70%
    10:00 +20°C° 0.2 mm 4 mps 746 mmHg 62%
    11:00 +21°C° 0 mm 3 mps 746 mmHg 55%
    12:00 +22°C° 0 mm 3 mps 746 mmHg 48%
    13:00 +24°C° 0 mm 3 mps 746 mmHg 41%
    14:00 +24°C° 0 mm 2 mps 746 mmHg 40%
    15:00 +25°C° 0 mm 2 mps 746 mmHg 39%
    16:00 +25°C° 0 mm 1 mps 746 mmHg 38%
    17:00 +23°C° 0 mm 2 mps 745 mmHg 44%
    18:00 +20°C° 0 mm 2 mps 745 mmHg 50%
    19:00 +18°C° 0 mm 2 mps 745 mmHg 56%
    20:00 +17°C° 0 mm 2 mps 745 mmHg 60%
    21:00 +16°C° 0 mm 3 mps 745 mmHg 63%
    22:00 +16°C° 0 mm 3 mps 744 mmHg 67%
    23:00 +15°C° 0 mm 2 mps 744 mmHg 72%

    26 April, Friday

    Time Temperature Precipitation Wind Pressure Humidity
    00:00 +14°C° 0 mm 2 mps 744 mmHg 77%
    01:00 +14°C° 0 mm 2 mps 743 mmHg 82%
    02:00 +13°C° 0 mm 2 mps 743 mmHg 84%
    03:00 +13°C° 0 mm 1 mps 743 mmHg 87%
    04:00 +13°C° 0 mm 1 mps 743 mmHg 89%
    05:00 +12°C° 0 mm 3 mps 743 mmHg 85%
    06:00 +13°C° 0 mm 4 mps 744 mmHg 81%
    07:00 +14°C° 0 mm 6 mps 744 mmHg 76%
    08:00 +15°C° 0 mm 6 mps 744 mmHg 74%
    09:00 +16°C° 0 mm 6 mps 744 mmHg 72%
    10:00 +17°C° 0 mm 6 mps 744 mmHg 70%
    11:00 +17°C° 0 mm 7 mps 744 mmHg 69%
    12:00 +16°C° 0 mm 7 mps 744 mmHg 69%
    13:00 +16°C° 0 mm 7 mps 745 mmHg 69%
    14:00 +13°C° 0.3 mm 8 mps 745 mmHg 74%
    15:00 +11°C° 0.3 mm 8 mps 745 mmHg 79%
    16:00 +9°C° 0.3 mm 8 mps 745 mmHg 85%
    17:00 +8°C° 0.8 mm 7 mps 746 mmHg 86%
    18:00 +8°C° 0.8 mm 6 mps 746 mmHg 88%
    19:00 +7°C° 0.8 mm 5 mps 747 mmHg 89%
    20:00 +7°C° 0 mm 5 mps 748 mmHg 90%
    21:00 +7°C° 0 mm 4 mps 748 mmHg 91%
    22:00 +7°C° 0 mm 4 mps 748 mmHg 92%
    23:00 +7°C° 0 mm 4 mps 749 mmHg 93%
    Show more